TimeAKDT,TemperatureF,Dew PointF,Humidity,Sea Level PressureIn,VisibilityMPH,Wind Direction,Wind SpeedMPH,Gust SpeedMPH,PrecipitationIn,Events,Conditions,WindDirDegrees,DateUTC
12:39 AM,48.0,46.9,96,29.73,10.0,West,3.5,-,N/A,,Scattered Clouds,280,2013-08-27 08:39:00
12:53 AM,48.9,48.0,97,29.73,10.0,Calm,Calm,-,N/A,Fog,Patches of Fog,0,2013-08-27 08:53:00
1:40 AM,48.0,48.0,100,29.72,10.0,Calm,Calm,-,N/A,Fog,Patches of Fog,0,2013-08-27 09:40:00
1:53 AM,48.0,46.9,96,29.72,10.0,WNW,3.5,-,N/A,,Mostly Cloudy,290,2013-08-27 09:53:00
2:15 AM,46.0,46.0,100,29.72,10.0,West,4.6,-,N/A,,Scattered Clouds,270,2013-08-27 10:15:00
2:53 AM,46.9,46.0,97,29.72,10.0,Calm,Calm,-,N/A,,Scattered Clouds,0,2013-08-27 10:53:00
3:53 AM,46.0,45.0,96,29.71,10.0,Calm,Calm,-,N/A,Fog,Patches of Fog,0,2013-08-27 11:53:00
4:53 AM,46.0,46.0,100,29.71,10.0,Calm,Calm,-,N/A,Fog,Patches of Fog,0,2013-08-27 12:53:00
5:53 AM,48.9,48.0,97,29.73,10.0,ENE,6.9,-,N/A,Fog,Patches of Fog,70,2013-08-27 13:53:00
6:53 AM,51.1,50.0,96,29.75,10.0,ESE,3.5,-,N/A,,Mostly Cloudy,110,2013-08-27 14:53:00
7:53 AM,52.0,50.0,93,29.75,10.0,Calm,Calm,-,N/A,,Mostly Cloudy,0,2013-08-27 15:53:00
8:53 AM,54.0,51.1,90,29.75,10.0,Calm,Calm,-,N/A,,Mostly Cloudy,0,2013-08-27 16:53:00
9:53 AM,57.9,51.1,78,29.75,10.0,Calm,Calm,-,N/A,,Mostly Cloudy,0,2013-08-27 17:53:00
10:53 AM,62.1,52.0,70,29.76,10.0,Calm,Calm,-,N/A,,Scattered Clouds,0,2013-08-27 18:53:00
11:53 AM,63.0,53.1,70,29.77,10.0,Variable,3.5,-,N/A,,Scattered Clouds,0,2013-08-27 19:53:00
12:53 PM,64.9,51.1,61,29.77,10.0,NNE,4.6,-,N/A,,Scattered Clouds,30,2013-08-27 20:53:00
1:53 PM,66.0,53.1,63,29.77,10.0,WSW,6.9,-,N/A,,Scattered Clouds,240,2013-08-27 21:53:00
2:53 PM,66.9,53.1,61,29.78,10.0,WNW,3.5,-,N/A,,Scattered Clouds,290,2013-08-27 22:53:00
3:53 PM,66.0,52.0,60,29.79,10.0,ESE,13.8,-,N/A,,Mostly Cloudy,120,2013-08-27 23:53:00
4:53 PM,64.9,52.0,63,29.80,10.0,East,11.5,-,N/A,,Mostly Cloudy,100,2013-08-28 00:53:00
5:53 PM,64.0,52.0,65,29.81,10.0,ESE,11.5,-,N/A,,Mostly Cloudy,120,2013-08-28 01:53:00
6:53 PM,62.1,52.0,70,29.82,10.0,East,10.4,-,N/A,,Mostly Cloudy,100,2013-08-28 02:53:00
7:53 PM,57.9,52.0,81,29.83,10.0,ENE,11.5,-,N/A,,Mostly Cloudy,60,2013-08-28 03:53:00
8:53 PM,57.0,52.0,83,29.84,10.0,East,15.0,-,N/A,,Overcast,90,2013-08-28 04:53:00
9:53 PM,55.9,52.0,87,29.86,10.0,East,13.8,-,N/A,,Overcast,90,2013-08-28 05:53:00
10:53 PM,55.9,52.0,87,29.86,10.0,East,12.7,-,N/A,,Overcast,90,2013-08-28 06:53:00
11:53 PM,55.9,52.0,87,29.87,10.0,East,13.8,-,N/A,,Overcast,90,2013-08-28 07:53:00